Location: Pace/Milton
(30.6162°N, 87.1503°W)
Time: 11:56:37
(UTC-06:00)

Envisat - Visible Passes

Search period start: 07 December 2021 00:00
Search period end: 17 December 2021 00:00
Orbit: 764 x 766 km, 98.2° (Epoch: 07 December)

Date Brightness Start Highest point End Pass type
(mag) Time Alt. Az. Time Alt. Az. Time Alt. Az.
07 Dec 3.5 04:27:07 10° NNE 04:32:08 59° E 04:37:06 10° S visible
07 Dec 4.6 06:08:29 10° NW 06:10:34 13° WNW 06:12:39 10° W visible
07 Dec 6.0 17:16:54 10° SW 17:19:58 16° W 17:23:03 10° WNW visible
08 Dec 5.2 03:51:08 10° NE 03:55:10 23° E 03:59:09 10° SSE visible
08 Dec 3.7 05:29:43 10° NNW 05:34:05 30° WNW 05:38:27 10° SW visible
09 Dec 2.8 04:52:20 10° N 04:57:25 74° WNW 05:02:28 10° SSW visible
10 Dec 4.0 04:15:43 10° NNE 04:20:33 44° E 04:25:22 10° S visible
10 Dec 4.4 05:56:03 10° NNW 05:59:08 17° WNW 06:02:15 10° WSW visible
11 Dec 5.6 03:40:09 10° NE 03:43:32 18° E 03:46:54 10° SE visible
11 Dec 3.4 05:17:54 10° N 05:22:36 39° WNW 05:27:17 10° SW visible
12 Dec 2.9 04:40:47 10° NNE 04:45:52 84° ESE 04:50:56 10° S visible
12 Dec 6.5 17:32:40 10° WSW 17:33:49 11° W 17:34:58 10° W visible
13 Dec 4.6 04:04:24 10° NNE 04:08:59 33° E 04:13:31 10° SSE visible
13 Dec 4.1 05:43:56 10° NNW 05:47:43 21° WNW 05:51:29 10° WSW visible
14 Dec 5.9 03:29:30 10° ENE 03:31:54 13° E 03:34:16 10° ESE visible
14 Dec 3.1 05:06:12 10° N 05:11:06 51° WNW 05:16:00 10° SSW visible
15 Dec 3.3 04:29:17 10° NNE 04:34:19 64° E 04:39:20 10° S visible
15 Dec 4.7 06:11:06 10° NW 06:12:42 11° WNW 06:14:20 10° W visible
15 Dec 6.0 17:19:24 10° SW 17:22:10 15° W 17:24:58 10° WNW visible
16 Dec 5.0 03:53:12 10° NE 03:57:22 25° E 04:01:31 10° SSE visible
16 Dec 3.8 05:31:59 10° NNW 05:36:15 28° WNW 05:40:29 10° SW visible
